Flag for Austria Weather past 2 weeks in Hollabrunn, Lower Austria, Austria

Now
57 °F

Cool.


Feels Like: 58 °F
Forecast: 46 / 72 °F
Wind: 3 mph from West

Location: Retz

Current Time: Aug 21, 2014 at 10:49:17 PM

Latest Report: Aug 21, 2014 at 10:00 PM


Visibility: N/A

Pressure: 30.04 "Hg

Humidity: 76%

Dew point: 50 °F

Location of HollabrunnLocation

Historic Weather in Hollabrunn — Graph

°F

Hollabrunn temperature yesterday

Maximum temperature yesterday: 61 °F (at 3:00 AM)
Minimum temperature yesterday: 57 °F (at 10:00 PM)
Average temperature yesterday: 59 °F

Past Weeks' High & Low Weather Summary

 TemperatureHumidityPressure
High82 °F (Aug 8, 5:00 PM)98% (Aug 13, 12:00 AM)30.06 "Hg (Aug 13, 12:00 AM)
Low53 °F (Aug 17, 6:00 AM)38% (Aug 8, 4:00 PM)29.62 "Hg (Aug 13, 8:00 PM)
Average65 °F73%29.92 "Hg
* Reported Aug 6 9:00 PM — Aug 21 9:00 PM, Hollabrunn, Weather by CustomWeather, © 2014

Note: Actual official high and low records may vary slightly from our data, if they occured in-between our weather recording intervals... More about our weather records

Advertising

Hollabrunn weather history for previous 24 hours

 ConditionsComfort  
Time TempWeatherWind HumidityBarometerVisibility
9:00 PM
Aug 21
61 °FCool.5 mph64%30.01 "HgN/A
8:00 PM60 °FScattered clouds.3 mph68%30.01 "Hg14 mi
7:00 PM65 °FMild.3 mph57%29.98 "HgN/A
6:00 PM66 °FMild.2 mph59%29.98 "HgN/A
5:00 PM64 °FMild.3 mph62%29.99 "HgN/A
4:00 PM57 °FFog.8 mph83%30.03 "HgN/A
3:00 PM65 °FMild.5 mph56%29.99 "HgN/A
2:00 PM67 °FPartly sunny.3 mph54%29.99 "Hg19 mi
1:00 PM64 °FMild.3 mph62%30.00 "HgN/A
12:00 PM65 °FMild.3 mph64%30.00 "HgN/A
11:00 AM62 °FCool.5 mph69%30.01 "HgN/A
10:00 AM60 °FCool.2 mph84%30.00 "HgN/A
9:00 AM56 °FCool.1 mph94%30.01 "HgN/A
8:00 AM54 °FOvercast.1 mph97%30.02 "Hg7 mi
6:00 AM53 °FFog.2 mph98%30.01 "HgN/A
5:00 AM54 °FCool.2 mph98%30.00 "HgN/A
4:00 AM54 °FCool.1 mph97%29.98 "HgN/A
3:00 AM54 °FFog.1 mph95%30.00 "HgN/A
2:00 AM54 °FCool.2 mph93%30.01 "HgN/A
1:00 AM54 °FFog.3 mph94%30.02 "HgN/A
12:00 AM56 °FCool.1 mph82%30.01 "HgN/A
11:00 PM
Aug 20
58 °FCool.1 mph70%29.99 "HgN/A
10:00 PM57 °FCool.6 mph82%30.01 "HgN/A
Weather by CustomWeather, © 2014

See weather overviewHow to use our weather pages